[[{"header":{"parameterUnit":"m.s-1","parameterCategory":1,"la1":30.2991,"la2":30.254,"lo1":-89.0895,"lo2":-89.0444,"dy":0.0017,"dx":0.0017,"nx":28,"ny":28,"refTime":"2024-07-05T09:00:00:Z","depth":0,"parameterNumber":2,"parameterNumberName":"U-component_of_WINDS"},"data":[0,0,0,0,0,0,0,0,0,0,0,0,0,0,0,0,0,0,0,0,0,0,0,0,0,0,0,0,0,0,0,0,0,0,0,0,0,0,0,0,0,0,0,0,0,0,0,0,0,0,0,0,0,0,0,0,0,0,1.1312,1.1313,0,1.1434,1.1436,1.1437,1.1417,1.1415,1.1413,1.141,1.1542,1.1548,1.1553,0,0,0,0,0,0,0,0,0,0,0,0,0,1.1065,1.1069,1.1312,1.1313,1.1315,1.1434,1.1436,1.1437,1.1417,1.1415,1.1412,1.141,1.154,1.1547,1.1553,0,0,0,0,0,0,0,0,0,0,0,0,0,1.1178,1.1071,1.1311,1.1319,1.1321,1.1434,1.1436,1.1438,1.1418,1.1414,1.1411,1.1408,1.1538,1.1546,1.1554,1.167,0,0,1.158,1.1583,0,0,0,0,0,0,0,0,1.1172,1.1187,1.1316,1.1319,1.1321,1.1407,1.1397,1.1516,1.1419,1.1381,1.141,1.1407,1.15,1.1511,1.1542,1.1676,1.1681,1.158,1.1585,1.1589,1.1591,0,0,0,0,0,0,0,1.1164,1.1182,1.136,1.1318,1.1321,1.1317,1.133,1.1419,1.1457,1.1384,1.1383,1.1397,1.1501,1.1534,1.1544,1.1683,1.158,1.1587,1.1592,1.1596,1.1917,1.192,0,0,0,0,0,0,1.1153,1.1175,1.1356,1.1364,1.1237,1.1325,1.1339,1.1383,1.1456,1.1464,1.14,1.1396,1.1521,1.1535,1.1549,1.1688,1.1589,1.1597,1.1601,1.1913,1.1917,1.1921,0,0,0,0,0,0,1.1148,1.1169,1.1351,1.1269,1.1292,1.1332,1.1382,1.1387,1.1419,1.1468,1.1475,1.1426,1.1519,1.1537,1.1639,1.1692,1.16,1.1608,1.1909,1.1914,1.1919,1.1967,0,0,0,0,0,0,1.1141,1.1168,1.1211,1.127,1.1297,1.1438,1.1385,1.1391,1.1433,1.1429,1.1495,1.1503,1.1518,1.1627,1.1647,1.1702,1.1614,1.1904,1.1911,1.1918,1.1961,1.1973,1.1984,0,0,0,0,0,1.1132,1.1221,1.1213,1.1235,1.1351,1.1441,1.1456,1.1471,1.1437,1.1482,1.1513,1.1501,1.1683,1.1637,1.166,1.1718,1.1901,1.1909,1.1917,1.1955,1.1971,1.1983,0,0,0,0,0,0,1.117,1.1229,1.1221,1.1332,1.1381,1.1438,1.1494,1.1487,1.1548,1.1542,1.1559,1.1574,1.1677,1.1708,1.1656,1.1833,1.1787,1.18,1.1809,1.1824,1.1835,1.1826,1.1621,0,0,0,0,0,1.119,1.1256,1.1306,1.1399,1.1424,1.1454,1.1494,1.15,1.1553,1.1575,1.1614,1.1667,1.1736,1.1781,1.1848,1.1965,1.1979,1.2016,1.2027,1.2036,1.2048,1.2111,1.2128,1.1948,1.1948,1.1947,0,0,1.1235,1.1275,1.1317,1.1407,1.1446,1.1516,1.1473,1.1548,1.16,1.1587,1.1684,1.1715,1.1775,1.1884,1.1935,1.1913,1.21,1.2047,1.2053,1.206,1.2121,1.2138,1.2153,1.1953,1.1952,1.1951,0,0,1.1351,1.1388,1.1469,1.1508,1.1567,1.1586,1.1606,1.1663,1.1681,1.1779,1.177,1.1833,1.1952,1.1995,1.2032,1.2162,1.2153,1.2183,1.2244,1.2305,1.232,1.2332,1.2378,1.2395,1.2194,1.2195,1.2195,0,1.1399,1.1502,1.1512,1.1588,1.1628,1.1616,1.1698,1.1737,1.1815,1.1844,1.1818,1.1966,1.2006,1.2124,1.2156,1.2187,1.221,1.2177,1.2316,1.2329,1.2341,1.2385,1.2403,1.2198,1.2197,1.2197,1.2197,0,1.1558,1.1629,1.1688,1.176,1.1807,1.1886,1.1909,1.1955,1.1957,1.198,1.2079,1.2126,1.2201,1.2229,1.2233,1.2348,1.2333,1.2312,1.2267,1.2361,1.2403,1.242,1.2202,1.2201,1.22,1.22,0,0,1.1704,1.1778,1.18,1.1832,1.1895,1.1951,1.2029,1.21,1.2139,1.2193,1.226,1.2359,1.2339,1.2382,1.239,1.2443,1.2542,1.2416,1.2417,1.2437,1.2672,1.2687,1.2707,1.2536,1.254,1.2542,1.2667,0,1.1825,1.1961,1.1971,1.2095,1.216,1.2149,1.2217,1.2264,1.2286,1.2347,1.2373,1.2442,1.2411,1.2436,1.2489,1.2519,1.259,1.251,1.2599,1.2602,1.2585,1.2729,1.2746,1.2861,1.2683,1.2686,1.2688,0,1.1986,1.2042,1.217,1.2222,1.225,1.2311,1.2376,1.2433,1.2486,1.2498,1.2544,1.2545,1.2626,1.2577,1.2689,1.2635,1.2672,1.2692,1.2697,1.2707,1.2651,1.2742,1.2899,1.2916,1.2714,1.2712,1.271,0,1.2078,1.2186,1.2276,1.2304,1.2367,1.241,1.2438,1.2487,1.2529,1.2586,1.2613,1.268,1.2717,1.2769,1.2788,1.275,1.2899,1.2852,1.2913,1.2913,1.2946,1.2944,1.3111,1.2969,1.2969,1.2969,1.2968,0,1.2214,1.2293,1.2318,1.2374,1.2462,1.2474,1.2561,1.2588,1.2631,1.2693,1.2688,1.2746,1.2767,1.2829,1.2844,1.2934,1.2952,1.2965,1.2968,1.2965,1.2964,1.299,1.2983,1.2973,1.2972,1.2971,1.2971,0,1.2333,1.2352,1.245,1.25,1.2515,1.2577,1.2621,1.2675,1.2696,1.2774,1.2793,1.2826,1.2898,1.2921,1.301,1.302,1.3126,1.3122,1.3107,1.3108,1.3167,1.3162,1.3358,1.3384,1.3225,1.3227,1.3228,0,1.2418,1.2478,1.2533,1.2572,1.2602,1.2666,1.2707,1.2721,1.2764,1.2827,1.2874,1.2945,1.3002,1.3119,1.3152,1.3219,1.3217,1.3281,1.3227,1.3222,1.3218,1.3214,1.322,1.3291,1.3293,1.3294,1.3296,0,1.2566,1.2573,1.2631,1.2693,1.2741,1.2791,1.2839,1.2872,1.2893,1.2942,1.3014,1.3059,1.3147,1.3218,1.3286,1.3317,1.331,1.3312,1.3329,1.3328,1.3317,1.3323,1.3135,1.3308,1.3306,1.3306,1.3305,1.3304,1.2671,1.2723,1.277,1.2835,1.2871,1.2916,1.2968,1.2994,1.3054,1.3125,1.313,1.3209,1.3259,1.3349,1.3383,1.3445,1.3427,1.3453,1.3459,1.3466,1.347,1.3306,1.3458,1.3457,1.3457,1.3457,1.3457,0,1.2819,1.2848,1.2907,1.2973,1.3024,1.301,1.3062,1.3106,1.3174,1.322,1.3276,1.3359,1.3427,1.3464,1.3532,1.3575,1.3574,1.3593,1.359,1.3597,1.3482,1.346,1.3592,1.3592,1.3592,1.3592,1.3592,1.3592,1.2903,1.299,1.3001,1.3107,1.3135,1.321,1.324,1.3282,1.3318,1.341,1.3465,1.3488,1.3531,1.3602,1.3663,1.3673,1.3698,1.3719,1.3727,1.3619,1.3605,1.3592,1.3571,1.3725,1.3725,1.3836,1.3837,1.3838]},{"header":{"parameterUnit":"m.s-1","parameterCategory":1,"la1":30.2991,"la2":30.254,"lo1":-89.0895,"lo2":-89.0444,"dy":0.0017,"dx":0.0017,"nx":28,"ny":28,"refTime":"2024-07-05T09:00:00:Z","depth":0,"parameterNumber":3,"parameterNumberName":"V-component_of_WINDS"},"data":[0,0,0,0,0,0,0,0,0,0,0,0,0,0,0,0,0,0,0,0,0,0,0,0,0,0,0,0,0,0,0,0,0,0,0,0,0,0,0,0,0,0,0,0,0,0,0,0,0,0,0,0,0,0,0,0,0,0,2.5161,2.5162,0,2.5184,2.5185,2.5185,2.5137,2.5135,2.5134,2.5132,2.5152,2.5154,2.5156,0,0,0,0,0,0,0,0,0,0,0,0,0,2.5072,2.5074,2.5161,2.5162,2.5162,2.5184,2.5185,2.5185,2.5137,2.5135,2.5133,2.5132,2.5152,2.5154,2.5156,0,0,0,0,0,0,0,0,0,0,0,0,0,2.5105,2.5075,2.5161,2.5141,2.5139,2.5184,2.5185,2.5185,2.5138,2.5135,2.5133,2.5131,2.5151,2.5154,2.5157,2.5221,0,0,2.5166,2.5167,0,0,0,0,0,0,0,0,2.5103,2.5108,2.5144,2.5142,2.5141,2.5155,2.516,2.5197,2.5138,2.5138,2.5132,2.513,2.5155,2.5157,2.5167,2.5222,2.5223,2.5166,2.5168,2.5169,2.517,0,0,0,0,0,0,0,2.5101,2.5107,2.517,2.5144,2.5142,2.5129,2.5131,2.5167,2.5159,2.5138,2.5135,2.5138,2.5154,2.5164,2.5167,2.5223,2.5166,2.5168,2.517,2.5171,2.5332,2.5334,0,0,0,0,0,0,2.5101,2.5105,2.5169,2.5171,2.5116,2.5133,2.5135,2.5153,2.5159,2.5157,2.514,2.5136,2.516,2.5163,2.5167,2.5243,2.5169,2.5172,2.5173,2.533,2.5333,2.5335,0,0,0,0,0,0,2.51,2.5108,2.5169,2.5137,2.5144,2.5137,2.5157,2.5155,2.5165,2.516,2.5158,2.5152,2.5158,2.5163,2.5208,2.5243,2.5173,2.5176,2.5327,2.533,2.5334,2.5395,0,0,0,0,0,0,2.5097,2.5107,2.5133,2.5138,2.5146,2.521,2.5159,2.5157,2.5171,2.5165,2.5171,2.517,2.5157,2.5204,2.5211,2.5246,2.5178,2.5323,2.5328,2.5333,2.539,2.54,2.5409,0,0,0,0,0,2.5094,2.5148,2.5134,2.5142,2.5178,2.5213,2.5217,2.5202,2.5174,2.5198,2.5195,2.517,2.5238,2.5209,2.5217,2.5253,2.5321,2.5327,2.5332,2.5385,2.5398,2.5409,0,0,0,0,0,0,2.5146,2.5149,2.5133,2.5191,2.5202,2.5204,2.5235,2.5216,2.5234,2.5228,2.5208,2.5209,2.5258,2.526,2.5228,2.5315,2.5275,2.5282,2.5312,2.5324,2.5334,2.5332,2.518,0,0,0,0,0,2.5164,2.5194,2.5194,2.5244,2.5251,2.5243,2.5257,2.5245,2.5255,2.5259,2.5259,2.5269,2.5293,2.5309,2.533,2.539,2.539,2.5418,2.5428,2.5436,2.5442,2.5473,2.5486,2.5354,2.5354,2.5354,0,0,2.5201,2.5207,2.5226,2.5255,2.5262,2.5292,2.5247,2.528,2.5301,2.5264,2.5306,2.5307,2.5317,2.5369,2.5392,2.5372,2.5479,2.5443,2.545,2.5452,2.548,2.5493,2.5504,2.5358,2.5357,2.5356,0,0,2.5285,2.5292,2.5335,2.5344,2.5356,2.535,2.536,2.5366,2.5365,2.5408,2.538,2.5405,2.5446,2.5454,2.5464,2.5551,2.5527,2.5558,2.5609,2.5639,2.565,2.5659,2.5689,2.57,2.5565,2.5565,2.5565,0,2.5329,2.5375,2.5359,2.5395,2.5408,2.5376,2.5419,2.5427,2.5445,2.5454,2.5432,2.5483,2.5487,2.5541,2.5562,2.5571,2.5582,2.5557,2.565,2.5659,2.5667,2.5695,2.5707,2.5568,2.5568,2.5568,2.5567,0,2.5428,2.546,2.5493,2.5513,2.5529,2.5568,2.5558,2.5576,2.5562,2.5558,2.5602,2.5606,2.5628,2.564,2.5626,2.5692,2.5679,2.5653,2.5612,2.5683,2.571,2.5721,2.5574,2.5572,2.5571,2.557,0,0,2.5544,2.5556,2.5568,2.5576,2.5587,2.5611,2.5648,2.567,2.5686,2.57,2.573,2.5766,2.5742,2.5753,2.574,2.5767,2.5835,2.5738,2.5738,2.5755,2.5906,2.5925,2.5938,2.582,2.5822,2.5823,2.5905,0,2.5626,2.5692,2.5679,2.5742,2.577,2.5741,2.5773,2.5783,2.578,2.5803,2.5799,2.5825,2.5793,2.5799,2.5824,2.5821,2.5865,2.5815,2.5846,2.5847,2.5844,2.5952,2.5972,2.6049,2.5916,2.5917,2.5919,0,2.5731,2.575,2.5816,2.5823,2.5834,2.5864,2.5883,2.5906,2.5916,2.5912,2.5924,2.5906,2.5942,2.5901,2.5949,2.5916,2.5928,2.5928,2.5931,2.5932,2.5887,2.5956,2.6073,2.6084,2.5935,2.5934,2.5932,0,2.5808,2.585,2.5895,2.5903,2.5912,2.5933,2.5938,2.5946,2.596,2.5977,2.5985,2.6006,2.6017,2.6032,2.6019,2.5991,2.6069,2.6028,2.6066,2.6067,2.6083,2.6082,2.6203,2.6092,2.6092,2.6092,2.6092,0,2.59,2.5942,2.5929,2.5957,2.6002,2.5987,2.6032,2.6033,2.604,2.6067,2.6042,2.6067,2.6049,2.6073,2.6063,2.6104,2.6109,2.6106,2.6103,2.6108,2.6108,2.6115,2.6109,2.6095,2.6094,2.6094,2.6093,0,2.5993,2.5987,2.6034,2.6039,2.6042,2.6075,2.6078,2.6104,2.6099,2.6133,2.614,2.6133,2.6159,2.6149,2.6176,2.6169,2.6222,2.6212,2.6219,2.6216,2.6254,2.6251,2.6383,2.6399,2.6279,2.628,2.6281,0,2.6053,2.6084,2.6093,2.611,2.6117,2.6143,2.6158,2.6144,2.616,2.6174,2.6198,2.6222,2.6241,2.6283,2.628,2.6301,2.629,2.6336,2.6293,2.6297,2.629,2.6288,2.6291,2.6344,2.6345,2.6346,2.6347,0,2.6158,2.6153,2.6176,2.6199,2.6217,2.6234,2.6248,2.6262,2.6249,2.6268,2.6295,2.631,2.6338,2.6362,2.6381,2.6384,2.6363,2.6361,2.637,2.6376,2.6378,2.6377,2.6241,2.6357,2.6356,2.6356,2.6355,2.6355,2.6235,2.6262,2.6273,2.6299,2.6308,2.6322,2.6346,2.6346,2.6368,2.6391,2.6381,2.6412,2.6421,2.6444,2.645,2.6474,2.6456,2.647,2.6474,2.6477,2.6482,2.6375,2.6477,2.6477,2.6476,2.6476,2.6476,0,2.6339,2.6344,2.6369,2.639,2.6411,2.6391,2.6406,2.6424,2.6452,2.6463,2.6482,2.6513,2.6536,2.6535,2.6556,2.6575,2.6566,2.6581,2.6579,2.658,2.6497,2.6486,2.6588,2.6588,2.6588,2.6588,2.6588,2.6588,2.6395,2.6439,2.6435,2.6483,2.6488,2.652,2.653,2.6542,2.655,2.6586,2.6606,2.6606,2.6612,2.6633,2.6653,2.6652,2.6661,2.668,2.6675,2.6597,2.6586,2.6575,2.6565,2.6682,2.6682,2.6756,2.6756,2.6757]}]]